Torna al catalogo

CZ-6A DEB

AttivoSSO
NORAD 54533·DEBRIS·🇨🇳 China

Lanciato Nov 11, 2022 da Taiyuan Satellite Launch Center

Loading…

Prossimi Passaggi (prossime 24 ore)

TLE

AggiornatoSource: Space-Track

Epoca: Sep 14, 2026, 10:22 UTC

1 54533U 22151KM  26257.43203650  .00000118  00000-0  94122-4 0  9998
2 54533  98.8689 249.1911 0068518 124.9002 235.8631 14.07096605196847

Traccia CZ-6A DEB in tempo reale con AllMySat

Download on the App Store